Location: NCO
(38.4404°N, 77.1340°W)
Time: 04:34:52
(UTC-05:00)

Hubble Space Telescope - Visible Passes

Search period start: 19 January 2018 00:00
Search period end: 29 January 2018 00:00
Orbit: 537 x 541 km, 28.5° (Epoch: 18 January)

Date Brightness Start Highest point End Pass type
(mag) Time Alt. Az. Time Alt. Az. Time Alt. Az.
22 Jan 3.3 19:07:44 10° S 19:08:34 11° SSE 19:08:34 11° SSE visible
23 Jan 3.1 18:56:28 10° S 18:58:16 13° SSE 18:58:59 12° SSE visible
24 Jan 3.0 18:45:36 10° SSW 18:47:53 14° SSE 18:49:22 12° SE visible
25 Jan 2.9 18:34:56 10° SSW 18:37:30 16° SSE 18:39:46 11° SE visible
25 Jan 3.9 20:15:02 10° SW 20:15:07 10° SW 20:15:07 10° SW visible
26 Jan 2.9 18:24:21 10° SW 18:27:09 18° S 18:29:56 10° SE visible
26 Jan 3.5 20:04:43 10° SW 20:05:31 13° SW 20:05:31 13° SW visible
27 Jan 2.8 18:13:51 10° SW 18:16:47 19° S 18:19:43 10° SE visible
27 Jan 3.3 19:54:27 10° SW 19:55:56 16° SSW 19:55:56 16° SSW visible
28 Jan 2.8 18:03:24 10° SW 18:06:26 20° S 18:09:27 10° SE visible
28 Jan 3.1 19:44:14 10° SW 19:46:22 17° SSW 19:46:22 17° SSW visible
